Location: Pebble Beach Sunset Acres
(33.0837°N, 96.4508°W)
Time: 15:19:53
(UTC+00:00)

Sich 1 - Visible Passes

Search period start: 26 June 2022 00:00
Search period end: 06 July 2022 00:00
Orbit: 592 x 624 km, 82.5° (Epoch: 26 June)

Date Brightness Start Highest point End Pass type
(mag) Time Alt. Az. Time Alt. Az. Time Alt. Az.
26 Jun 4.1 10:24:49 10° SSE 10:28:59 47° E 10:33:08 10° NNE visible
27 Jun 3.1 10:38:28 10° S 10:42:49 89° E 10:47:09 10° N visible
28 Jun 6.2 09:19:17 10° E 09:19:36 10° E 09:19:56 10° E visible
29 Jun 5.5 09:30:14 10° SE 09:33:16 19° E 09:36:17 10° NE visible
30 Jun 4.6 09:43:06 10° SSE 09:47:00 33° E 09:50:53 10° NNE visible
01 Jul 3.4 09:56:38 11° S 10:00:47 64° E 10:05:02 10° NNE visible
02 Jul 3.0 10:10:59 14° SSW 10:14:38 67° W 10:18:55 10° N visible
03 Jul 5.7 08:49:10 10° ESE 08:51:18 14° E 08:53:26 10° ENE visible
03 Jul 3.7 10:25:16 14° SW 10:28:33 35° W 10:32:29 10° NNW visible
04 Jul 5.0 09:02:34 15° SE 09:04:59 24° E 09:08:28 10° NE visible
04 Jul 4.5 10:39:32 11° WSW 10:42:31 20° WNW 10:45:42 10° NNW visible
05 Jul 3.9 09:16:48 27° SSE 09:18:44 45° E 09:22:49 10° NNE visible
